[[{"header":{"parameterUnit":"m.s-1","parameterCategory":2,"la1":30.2991,"la2":30.254,"lo1":-89.0895,"lo2":-89.0444,"dy":0.0017,"dx":0.0017,"nx":28,"ny":28,"refTime":"2025-02-13T03:00:00:Z","depth":"0","parameterNumber":2,"parameterNumberName":"U-component_of_CURRENTS"},"data":[0,0,0,0,0,0,0,0,0,0,0,0,0,0,0,0,0,0,0,0,0,0,0,0,0,0,0,0,0,0,0,0,0,0,0,0,0,0,0,0,0,0,0,0,0,0,0,0,0,0,0,0,0,0,0,0,0,0,0.2771,0.2772,0,0.2808,0.2808,0.2808,0.2796,0.2796,0.2795,0.2795,0.2784,0.2784,0.2784,0,0,0,0,0,0,0,0,0,0,0,0,0,0.27,0.2701,0.2771,0.2772,0.2773,0.2808,0.2808,0.2808,0.2796,0.2796,0.2795,0.2795,0.2784,0.2784,0.2784,0,0,0,0,0,0,0,0,0,0,0,0,0,0.273,0.2701,0.2771,0.2774,0.2774,0.2808,0.2808,0.2808,0.2796,0.2796,0.2795,0.2794,0.2784,0.2784,0.2784,0.28,0,0,0.2785,0.2785,0,0,0,0,0,0,0,0,0.2728,0.2732,0.2772,0.2773,0.2775,0.28,0.2779,0.2804,0.2797,0.2784,0.2795,0.2794,0.2788,0.2787,0.2792,0.28,0.2799,0.2785,0.2785,0.2785,0.2785,0,0,0,0,0,0,0,0.2726,0.2731,0.2782,0.2773,0.2775,0.2776,0.2779,0.2784,0.2786,0.2785,0.2785,0.2795,0.2787,0.2792,0.2791,0.2799,0.2785,0.2785,0.2785,0.2785,0.2853,0.2854,0,0,0,0,0,0,0.2729,0.2729,0.2781,0.2784,0.2753,0.2779,0.2782,0.279,0.2787,0.2787,0.2796,0.2795,0.2792,0.2791,0.2791,0.2835,0.2785,0.2785,0.2786,0.2851,0.2853,0.2855,0,0,0,0,0,0,0.2728,0.2734,0.278,0.276,0.2766,0.2781,0.279,0.2791,0.28,0.2796,0.2795,0.2804,0.2791,0.279,0.2808,0.2834,0.2785,0.2786,0.2849,0.2852,0.2854,0.2908,0,0,0,0,0,0,0.2725,0.2733,0.2739,0.276,0.2768,0.2807,0.2791,0.2792,0.2808,0.2807,0.2803,0.2801,0.279,0.2808,0.2809,0.2833,0.2786,0.2847,0.285,0.2853,0.2904,0.2912,0.2919,0,0,0,0,0,0.2723,0.2736,0.2739,0.2745,0.2776,0.2809,0.2813,0.2818,0.2809,0.2821,0.2821,0.2801,0.2828,0.281,0.281,0.2835,0.2846,0.2849,0.2853,0.2901,0.291,0.2918,0,0,0,0,0,0,0.2707,0.2738,0.274,0.2762,0.2787,0.2808,0.2822,0.2825,0.2835,0.2832,0.282,0.2819,0.2846,0.2837,0.2817,0.2866,0.2835,0.2839,0.2871,0.288,0.2887,0.2896,0.2786,0,0,0,0,0,0.2709,0.2727,0.2756,0.2774,0.2789,0.2806,0.282,0.2827,0.284,0.2844,0.2842,0.2846,0.2863,0.2867,0.2875,0.29,0.291,0.2918,0.2925,0.2931,0.294,0.2982,0.2994,0.2867,0.2867,0.2867,0,0,0.2707,0.2728,0.2737,0.2773,0.2791,0.2821,0.2812,0.2841,0.2864,0.2841,0.2867,0.2871,0.2876,0.2906,0.2917,0.2899,0.2976,0.2936,0.2941,0.2947,0.2987,0.2999,0.301,0.287,0.2869,0.2869,0,0,0.272,0.2735,0.2756,0.2782,0.2819,0.2836,0.2847,0.2874,0.2884,0.2912,0.2908,0.2932,0.2943,0.296,0.2969,0.3023,0.3014,0.3024,0.3065,0.3105,0.3116,0.3125,0.3164,0.3176,0.3025,0.3025,0.3025,0,0.2717,0.2746,0.2768,0.28,0.2824,0.2844,0.2875,0.2897,0.2924,0.2944,0.2926,0.2975,0.2973,0.3026,0.3044,0.304,0.3059,0.3028,0.3115,0.3124,0.3133,0.317,0.3183,0.3028,0.3028,0.3028,0.3027,0,0.2747,0.2772,0.2791,0.2836,0.2867,0.2897,0.2935,0.2962,0.2973,0.2995,0.3045,0.3051,0.3081,0.3087,0.308,0.3148,0.3141,0.312,0.309,0.3149,0.3184,0.3197,0.3033,0.3032,0.3031,0.303,0,0,0.2733,0.2798,0.2803,0.2827,0.2887,0.2913,0.2966,0.302,0.3056,0.3082,0.3133,0.3165,0.317,0.3182,0.3182,0.3214,0.3291,0.3195,0.3195,0.323,0.3387,0.3395,0.3409,0.3284,0.3286,0.3288,0.339,0,0.2748,0.2801,0.2835,0.2888,0.292,0.2963,0.301,0.3063,0.3101,0.3155,0.3187,0.323,0.3207,0.3224,0.3259,0.3287,0.3326,0.3266,0.3328,0.333,0.3327,0.3425,0.3385,0.3474,0.3403,0.3405,0.3406,0,0.2764,0.2799,0.2847,0.2915,0.2933,0.2965,0.3044,0.309,0.3177,0.3212,0.327,0.3295,0.3366,0.3324,0.3414,0.3377,0.3391,0.3403,0.3407,0.3404,0.3362,0.3402,0.3499,0.3472,0.3425,0.3424,0.3422,0,0.2736,0.2806,0.284,0.2863,0.2943,0.2971,0.3014,0.31,0.3161,0.3249,0.3311,0.3379,0.3434,0.3464,0.3503,0.3463,0.3597,0.354,0.3562,0.3562,0.3536,0.3531,0.3611,0.3603,0.3602,0.3602,0.3602,0,0.2735,0.2761,0.2823,0.284,0.2886,0.295,0.3012,0.307,0.3181,0.3259,0.3332,0.3413,0.3473,0.3555,0.3553,0.3623,0.3643,0.3601,0.3603,0.3555,0.355,0.3529,0.35,0.3606,0.3605,0.3604,0.3604,0,0.2696,0.2737,0.2777,0.2849,0.287,0.2899,0.3009,0.3064,0.3173,0.3282,0.3321,0.3478,0.3583,0.3646,0.3718,0.3707,0.3676,0.3757,0.3702,0.3696,0.3662,0.3637,0.3538,0.3407,0.3796,0.3797,0.3798,0,0.268,0.2696,0.2762,0.2781,0.2807,0.2865,0.2911,0.3035,0.3105,0.3309,0.3362,0.353,0.3638,0.3789,0.3815,0.3864,0.3723,0.3821,0.373,0.3692,0.3665,0.3473,0.3352,0.3719,0.372,0.372,0.372,0,0.2648,0.2667,0.2697,0.2735,0.2773,0.2823,0.2897,0.2959,0.3108,0.3225,0.3382,0.35,0.3706,0.3775,0.3874,0.3877,0.3686,0.3823,0.3803,0.3645,0.3423,0.3286,0.3617,0.3721,0.3721,0.3721,0.3721,0.3721,0.2612,0.2618,0.2653,0.2682,0.2723,0.2753,0.2763,0.287,0.2976,0.3123,0.3297,0.3456,0.3695,0.3854,0.3829,0.3836,0.3703,0.3756,0.374,0.3556,0.3391,0.3731,0.382,0.382,0.3821,0.3821,0.3821,0,0.2559,0.2572,0.2601,0.2619,0.2621,0.267,0.2732,0.2738,0.2805,0.3018,0.3155,0.3442,0.3598,0.3744,0.3893,0.3805,0.3555,0.3704,0.3445,0.3332,0.3693,0.3656,0.3691,0.3691,0.3691,0.3691,0.3691,0.3691,0.2531,0.2523,0.2535,0.2505,0.2513,0.2477,0.2481,0.252,0.2644,0.2821,0.3001,0.3199,0.3633,0.3938,0.3955,0.3831,0.3512,0.3391,0.3277,0.3613,0.3615,0.3617,0.3577,0.3595,0.3594,0.2783,0.2778,0.2774]},{"header":{"parameterUnit":"m.s-1","parameterCategory":2,"la1":30.2991,"la2":30.254,"lo1":-89.0895,"lo2":-89.0444,"dy":0.0017,"dx":0.0017,"nx":28,"ny":28,"refTime":"2025-02-13T03:00:00:Z","depth":"0","parameterNumber":3,"parameterNumberName":"V-component_of_CURRENTS"},"data":[0,0,0,0,0,0,0,0,0,0,0,0,0,0,0,0,0,0,0,0,0,0,0,0,0,0,0,0,0,0,0,0,0,0,0,0,0,0,0,0,0,0,0,0,0,0,0,0,0,0,0,0,0,0,0,0,0,0,-0.0108,-0.0108,0,-0.0179,-0.018,-0.0181,-0.0233,-0.0233,-0.0234,-0.0234,-0.0323,-0.0326,-0.0328,0,0,0,0,0,0,0,0,0,0,0,0,0,-0.0082,-0.0082,-0.0107,-0.0108,-0.0109,-0.0179,-0.018,-0.0181,-0.0233,-0.0233,-0.0234,-0.0234,-0.0323,-0.0325,-0.0328,0,0,0,0,0,0,0,0,0,0,0,0,0,-0.012,-0.0082,-0.0107,-0.0141,-0.0145,-0.0179,-0.018,-0.0182,-0.0233,-0.0233,-0.0234,-0.0234,-0.0322,-0.0325,-0.0328,-0.0343,0,0,-0.0338,-0.034,0,0,0,0,0,0,0,0,-0.0118,-0.0121,-0.0135,-0.0139,-0.0143,-0.0195,-0.0204,-0.0236,-0.0233,-0.0202,-0.0234,-0.0234,-0.028,-0.0287,-0.0303,-0.0347,-0.0351,-0.0339,-0.0341,-0.0342,-0.0343,0,0,0,0,0,0,0,-0.0115,-0.0119,-0.0139,-0.0136,-0.014,-0.0175,-0.0181,-0.0211,-0.0241,-0.0205,-0.0208,-0.0212,-0.0283,-0.03,-0.0306,-0.0353,-0.0339,-0.0342,-0.0344,-0.0345,-0.0409,-0.0409,0,0,0,0,0,0,-0.0097,-0.0116,-0.0136,-0.0141,-0.0127,-0.0175,-0.0181,-0.018,-0.0241,-0.0249,-0.0211,-0.0214,-0.0294,-0.0302,-0.0309,-0.0312,-0.0342,-0.0345,-0.0347,-0.0409,-0.0409,-0.0409,0,0,0,0,0,0,-0.0096,-0.0098,-0.0133,-0.0128,-0.0135,-0.0174,-0.0173,-0.0181,-0.0194,-0.0245,-0.0254,-0.0215,-0.0295,-0.0305,-0.0328,-0.0317,-0.0347,-0.035,-0.041,-0.0409,-0.0409,-0.033,0,0,0,0,0,0,-0.0095,-0.0097,-0.0092,-0.0126,-0.0134,-0.0141,-0.0173,-0.0183,-0.0195,-0.0199,-0.0251,-0.026,-0.0296,-0.0322,-0.0331,-0.0322,-0.0352,-0.041,-0.041,-0.0409,-0.0333,-0.0326,-0.0321,0,0,0,0,0,-0.0093,-0.0077,-0.0091,-0.0094,-0.0125,-0.014,-0.0147,-0.0179,-0.0194,-0.0193,-0.0229,-0.0258,-0.0325,-0.0325,-0.0335,-0.0326,-0.041,-0.041,-0.0409,-0.0335,-0.0328,-0.0321,0,0,0,0,0,0,-0.0062,-0.0081,-0.0097,-0.0088,-0.0108,-0.0147,-0.0148,-0.0171,-0.02,-0.0202,-0.0254,-0.0265,-0.0283,-0.0315,-0.0313,-0.0344,-0.0373,-0.0374,-0.0313,-0.0307,-0.0301,-0.0277,-0.0355,0,0,0,0,0,-0.0052,-0.0046,-0.0073,-0.0066,-0.0072,-0.011,-0.0121,-0.014,-0.0169,-0.0182,-0.0218,-0.0258,-0.029,-0.0305,-0.0339,-0.0353,-0.0386,-0.0355,-0.0349,-0.0344,-0.0332,-0.0379,-0.0376,-0.0407,-0.0407,-0.0407,0,0,-0.0039,-0.0048,-0.0046,-0.006,-0.008,-0.0075,-0.0117,-0.0123,-0.0121,-0.0186,-0.0196,-0.0239,-0.0289,-0.0307,-0.0317,-0.0331,-0.0352,-0.0344,-0.0339,-0.033,-0.0378,-0.0375,-0.0372,-0.0406,-0.0406,-0.0406,0,0,-0.0002,-0.0016,0.0003,-0.0007,-0.0024,-0.0045,-0.0041,-0.0073,-0.0091,-0.0107,-0.0153,-0.0184,-0.0234,-0.0266,-0.0289,-0.0273,-0.0322,-0.0286,-0.0237,-0.0282,-0.028,-0.0278,-0.0309,-0.0311,-0.0282,-0.0282,-0.0282,0,0.0014,0.0036,0.0006,0.0022,0.0023,-0.0024,-0.0001,-0.0026,-0.0062,-0.007,-0.0097,-0.0169,-0.0213,-0.0234,-0.0231,-0.0258,-0.0289,-0.0256,-0.0273,-0.0273,-0.0272,-0.0305,-0.0308,-0.0278,-0.0278,-0.0279,-0.0279,0,0.0065,0.0081,0.0093,0.0098,0.0094,0.0107,0.0076,0.0067,0.0038,0.0009,-0.002,-0.0087,-0.0127,-0.0151,-0.0187,-0.0203,-0.0227,-0.0261,-0.0286,-0.0264,-0.03,-0.0305,-0.0272,-0.0274,-0.0275,-0.0276,0,0,0.0108,0.0127,0.0131,0.0153,0.0139,0.0147,0.0149,0.0141,0.0151,0.0093,0.0096,0.0024,-0.0018,-0.0048,-0.0103,-0.0144,-0.0173,-0.0194,-0.0198,-0.0216,-0.0263,-0.028,-0.0288,-0.0212,-0.0212,-0.0213,-0.0286,0,0.0158,0.0215,0.0205,0.0255,0.0284,0.0249,0.026,0.0242,0.0212,0.02,0.012,0.0097,0.0022,0.0006,-0.0048,-0.014,-0.0182,-0.0149,-0.0289,-0.0293,-0.0304,-0.0293,-0.029,-0.0355,-0.0291,-0.0292,-0.0292,0,0.0214,0.0247,0.0309,0.0348,0.0357,0.0371,0.0387,0.0391,0.0353,0.0325,0.0276,0.0216,0.015,0.0081,-0.0063,-0.0039,-0.0138,-0.0217,-0.0223,-0.0268,-0.0319,-0.037,-0.0366,-0.0577,-0.03,-0.0299,-0.0299,0,0.027,0.0322,0.0378,0.039,0.0418,0.0436,0.0446,0.0428,0.0454,0.0404,0.0413,0.0309,0.0272,0.013,-0.0034,-0.0049,-0.0194,-0.0239,-0.0348,-0.035,-0.0388,-0.0393,-0.0597,-0.0338,-0.0338,-0.0338,-0.0338,0,0.0332,0.0377,0.041,0.044,0.0513,0.0501,0.0563,0.0549,0.0555,0.0596,0.0483,0.0495,0.0282,0.0176,0.0006,-0.0177,-0.0168,-0.0331,-0.037,-0.036,-0.0361,-0.058,-0.0716,-0.0341,-0.034,-0.0339,-0.0339,0,0.0384,0.0402,0.0475,0.0521,0.054,0.059,0.0655,0.0705,0.0683,0.0734,0.0729,0.0639,0.0493,0.0279,0.0053,-0.0108,-0.0423,-0.0362,-0.0329,-0.0362,-0.0658,-0.0788,-0.1037,-0.1136,-0.049,-0.0491,-0.0491,0,0.0416,0.0459,0.0539,0.0591,0.0614,0.0686,0.0745,0.0762,0.0825,0.0832,0.0875,0.0759,0.0706,0.0368,0.0048,-0.0249,-0.0459,-0.044,-0.0474,-0.0669,-0.0844,-0.0934,-0.1005,-0.0495,-0.0496,-0.0496,-0.0497,0,0.0483,0.0507,0.0571,0.0679,0.0752,0.0849,0.0933,0.1007,0.1034,0.1082,0.1124,0.1087,0.0758,0.0472,0.0053,-0.0175,-0.0607,-0.046,-0.0682,-0.0879,-0.0972,-0.1085,-0.0447,-0.0502,-0.0501,-0.0501,-0.0501,-0.05,0.0533,0.0592,0.0676,0.0783,0.0874,0.0996,0.109,0.1193,0.1311,0.1402,0.1338,0.1331,0.088,0.0315,-0.0035,-0.0654,-0.0667,-0.0823,-0.0967,-0.1038,-0.1139,-0.05,-0.0588,-0.0588,-0.0588,-0.0588,-0.0588,0,0.0603,0.0672,0.0775,0.0903,0.1019,0.1051,0.1213,0.1317,0.1473,0.1572,0.1615,0.1401,0.0843,0.0253,-0.0572,-0.1041,-0.1226,-0.1318,-0.1461,-0.151,-0.0955,-0.0959,-0.1107,-0.1107,-0.1107,-0.1107,-0.1107,-0.1106,0.064,0.0753,0.081,0.1005,0.1097,0.1261,0.136,0.1514,0.1633,0.1766,0.179,0.1758,0.1315,-0.0209,-0.1257,-0.1534,-0.189,-0.1988,-0.215,-0.1794,-0.1758,-0.1725,-0.176,-0.2074,-0.2075,-0.2623,-0.2629,-0.2633]}],[{"header":{"parameterUnit":"m.s-1","parameterCategory":2,"la1":30.2991,"la2":30.254,"lo1":-89.0895,"lo2":-89.0444,"dy":0.0017,"dx":0.0017,"nx":28,"ny":28,"refTime":"2025-02-13T03:00:00:Z","depth":"2","parameterNumber":2,"parameterNumberName":"U-component_of_CURRENTS"},"data":[0,0,0,0,0,0,0,0,0,0,0,0,0,0,0,0,0,0,0,0,0,0,0,0,0,0,0,0,0,0,0,0,0,0,0,0,0,0,0,0,0,0,0,0,0,0,0,0,0,0,0,0,0,0,0,0,0,0,0.2694,0.2695,0,0.273,0.2731,0.2731,0.2723,0.2722,0.2722,0.2721,0.2715,0.2715,0.2715,0,0,0,0,0,0,0,0,0,0,0,0,0,0.2625,0.2626,0.2694,0.2695,0.2696,0.273,0.2731,0.2731,0.2723,0.2722,0.2722,0.2721,0.2715,0.2715,0.2715,0,0,0,0,0,0,0,0,0,0,0,0,0,0.2654,0.2626,0.2694,0.2698,0.2699,0.273,0.2731,0.2731,0.2723,0.2722,0.2722,0.2721,0.2715,0.2715,0.2715,0.2728,0,0,0.2716,0.2716,0,0,0,0,0,0,0,0,0.2652,0.2656,0.2697,0.2698,0.2699,0.2724,0.2704,0.2729,0.2723,0.271,0.2721,0.2721,0.2717,0.2717,0.272,0.2728,0.2727,0.2716,0.2716,0.2716,0.2716,0,0,0,0,0,0,0,0.265,0.2655,0.2705,0.2698,0.2699,0.2701,0.2704,0.2709,0.2713,0.2711,0.2712,0.2721,0.2716,0.272,0.272,0.2727,0.2716,0.2716,0.2716,0.2716,0.2783,0.2785,0,0,0,0,0,0,0.2653,0.2653,0.2704,0.2706,0.2678,0.2703,0.2706,0.2714,0.2714,0.2714,0.2722,0.2721,0.272,0.272,0.272,0.2766,0.2716,0.2716,0.2717,0.2782,0.2783,0.2785,0,0,0,0,0,0,0.2651,0.2657,0.2702,0.2683,0.2689,0.2705,0.2714,0.2715,0.2726,0.2723,0.2722,0.2732,0.272,0.272,0.2739,0.2764,0.2716,0.2717,0.278,0.2782,0.2784,0.2838,0,0,0,0,0,0,0.2649,0.2656,0.2663,0.2683,0.2691,0.273,0.2715,0.2716,0.2734,0.2733,0.2731,0.273,0.2719,0.2738,0.2739,0.2764,0.2717,0.2778,0.2781,0.2784,0.2835,0.2842,0.2849,0,0,0,0,0,0.2647,0.266,0.2663,0.267,0.27,0.2731,0.2735,0.2741,0.2735,0.2747,0.2749,0.273,0.2758,0.274,0.274,0.2766,0.2776,0.278,0.2783,0.2831,0.2841,0.2849,0,0,0,0,0,0,0.2632,0.2662,0.2665,0.2687,0.2711,0.2731,0.2746,0.2749,0.276,0.276,0.2748,0.2748,0.2776,0.2766,0.2747,0.2796,0.2765,0.2769,0.2802,0.2811,0.2818,0.2826,0.2717,0,0,0,0,0,0.2634,0.2653,0.268,0.2699,0.2714,0.2731,0.2744,0.2752,0.2766,0.277,0.2769,0.2775,0.2791,0.2796,0.2805,0.2829,0.2838,0.2848,0.2855,0.2861,0.287,0.291,0.2921,0.2797,0.2797,0.2797,0,0,0.2633,0.2654,0.2663,0.2698,0.2716,0.2745,0.2737,0.2766,0.2789,0.2768,0.2795,0.28,0.2805,0.2835,0.2846,0.2829,0.2904,0.2866,0.2871,0.2877,0.2915,0.2927,0.2938,0.28,0.2799,0.2799,0,0,0.2646,0.2662,0.2683,0.2708,0.2745,0.276,0.2772,0.2799,0.281,0.2839,0.2836,0.286,0.2872,0.2889,0.2897,0.2951,0.2943,0.2952,0.2993,0.3032,0.3043,0.3052,0.3089,0.3101,0.2954,0.2954,0.2954,0,0.2645,0.2673,0.2695,0.2725,0.2749,0.277,0.28,0.2822,0.2849,0.2869,0.2854,0.2903,0.2902,0.2954,0.2972,0.2968,0.2987,0.2957,0.3042,0.3051,0.3059,0.3095,0.3107,0.2957,0.2957,0.2957,0.2956,0,0.2674,0.2699,0.2718,0.2761,0.2791,0.2822,0.2858,0.2886,0.2899,0.2921,0.2971,0.2978,0.3008,0.3015,0.3008,0.3074,0.3068,0.3047,0.3017,0.3075,0.3109,0.3121,0.2962,0.2961,0.296,0.2959,0,0,0.2661,0.2724,0.2729,0.2753,0.2812,0.2837,0.2889,0.2942,0.2978,0.3006,0.3057,0.3088,0.3096,0.3107,0.3108,0.314,0.3215,0.3121,0.3122,0.3155,0.3308,0.3309,0.3322,0.3208,0.321,0.3212,0.331,0,0.2676,0.2727,0.276,0.2812,0.2843,0.2885,0.2932,0.2984,0.3022,0.3076,0.3109,0.3153,0.3132,0.315,0.3184,0.3211,0.3249,0.3191,0.325,0.3252,0.3243,0.3336,0.3061,0.3125,0.3322,0.3324,0.3325,0,0.2691,0.2725,0.2772,0.2838,0.2857,0.2889,0.2967,0.3011,0.3098,0.3133,0.3191,0.3217,0.3287,0.3248,0.3334,0.33,0.3313,0.3324,0.3328,0.3318,0.3276,0.3098,0.314,0.3345,0.3344,0.3342,0.3341,0,0.2665,0.2733,0.2766,0.2788,0.2867,0.2896,0.2938,0.3023,0.3083,0.3171,0.3232,0.3299,0.3355,0.3383,0.3421,0.3383,0.3511,0.3456,0.3471,0.3471,0.3243,0.322,0.3516,0.3516,0.3516,0.3516,0.3515,0,0.2663,0.269,0.2751,0.2768,0.2814,0.2877,0.294,0.2996,0.3106,0.3182,0.3255,0.3334,0.3393,0.3472,0.347,0.3533,0.3556,0.3508,0.3509,0.3257,0.3235,0.342,0.3407,0.3519,0.3518,0.3518,0.3517,0,0.2627,0.2667,0.2707,0.2778,0.28,0.283,0.2939,0.2992,0.3101,0.3207,0.3247,0.3398,0.3498,0.3559,0.3627,0.3613,0.3649,0.3656,0.3367,0.3333,0.3565,0.3554,0.3683,0.3684,0.3685,0.3686,0.3687,0,0.2611,0.2627,0.2694,0.2713,0.274,0.2799,0.2845,0.2967,0.3034,0.3232,0.3283,0.3446,0.3542,0.3683,0.3668,0.3702,0.3713,0.3461,0.3341,0.3601,0.3588,0.3576,0.3564,0.3053,0.3048,0.3044,0.3041,0,0.258,0.2601,0.263,0.267,0.2708,0.2757,0.2831,0.2891,0.3035,0.3146,0.3295,0.3401,0.3561,0.3492,0.3566,0.353,0.3435,0.3392,0.3739,0.3073,0.302,0.3003,0.3009,0.3008,0.3011,0.3014,0.3016,0.3017,0.2547,0.2553,0.2589,0.2619,0.266,0.2688,0.2697,0.2788,0.2884,0.2985,0.3168,0.3218,0.329,0.3275,0.3201,0.3135,0.3359,0.3178,0.3183,0.3193,0.3123,0.3077,0.3062,0.3065,0.3068,0.3071,0.3073,0,0.2489,0.2509,0.2538,0.2557,0.255,0.2609,0.2667,0.2635,0.2675,0.2799,0.2894,0.2726,0.2741,0.2792,0.2665,0.2711,0.2611,0.2582,0.2399,0.2439,0.2473,0.2356,0.2096,0.2092,0.2089,0.2086,0,0,0.246,0.2449,0.246,0.2427,0.2443,0.2387,0.2388,0.2362,0.2397,0.2372,0.2378,0.2595,0.2736,0.2358,0.2345,0.219,0.2278,0.211,0.2907,0.2732,0.276,0.2851,0.2725,0,0,0,0,0]},{"header":{"parameterUnit":"m.s-1","parameterCategory":2,"la1":30.2991,"la2":30.254,"lo1":-89.0895,"lo2":-89.0444,"dy":0.0017,"dx":0.0017,"nx":28,"ny":28,"refTime":"2025-02-13T03:00:00:Z","depth":"2","parameterNumber":3,"parameterNumberName":"V-component_of_CURRENTS"},"data":[0,0,0,0,0,0,0,0,0,0,0,0,0,0,0,0,0,0,0,0,0,0,0,0,0,0,0,0,0,0,0,0,0,0,0,0,0,0,0,0,0,0,0,0,0,0,0,0,0,0,0,0,0,0,0,0,0,0,-0.0024,-0.0024,0,-0.0094,-0.0095,-0.0096,-0.0148,-0.0149,-0.0149,-0.0149,-0.0237,-0.0239,-0.0242,0,0,0,0,0,0,0,0,0,0,0,0,0,0.0,0.0,-0.0024,-0.0024,-0.0025,-0.0093,-0.0095,-0.0096,-0.0148,-0.0149,-0.0149,-0.0149,-0.0237,-0.0239,-0.0242,0,0,0,0,0,0,0,0,0,0,0,0,0,-0.0036,0.0,-0.0024,-0.0058,-0.0061,-0.0093,-0.0095,-0.0096,-0.0148,-0.0149,-0.0149,-0.0149,-0.0236,-0.0239,-0.0242,-0.0254,0,0,-0.0252,-0.0253,0,0,0,0,0,0,0,0,-0.0034,-0.0037,-0.0052,-0.0055,-0.0059,-0.011,-0.0118,-0.0149,-0.0148,-0.0118,-0.0149,-0.015,-0.0195,-0.0201,-0.0217,-0.0258,-0.0262,-0.0252,-0.0254,-0.0255,-0.0256,0,0,0,0,0,0,0,-0.0031,-0.0035,-0.0054,-0.0053,-0.0057,-0.0091,-0.0096,-0.0125,-0.0156,-0.0121,-0.0124,-0.0128,-0.0197,-0.0214,-0.0219,-0.0263,-0.0252,-0.0255,-0.0257,-0.0258,-0.0319,-0.0318,0,0,0,0,0,0,-0.0014,-0.0032,-0.0052,-0.0056,-0.0044,-0.0091,-0.0097,-0.0096,-0.0155,-0.0164,-0.0127,-0.013,-0.0208,-0.0216,-0.0223,-0.0226,-0.0255,-0.0258,-0.026,-0.0319,-0.0319,-0.0318,0,0,0,0,0,0,-0.0013,-0.0015,-0.0049,-0.0044,-0.005,-0.009,-0.0089,-0.0097,-0.011,-0.0159,-0.0169,-0.0131,-0.0209,-0.0218,-0.0241,-0.023,-0.026,-0.0263,-0.0319,-0.0319,-0.0318,-0.0241,0,0,0,0,0,0,-0.0012,-0.0014,-0.0009,-0.0042,-0.005,-0.0056,-0.0089,-0.0098,-0.0111,-0.0115,-0.0166,-0.0175,-0.021,-0.0236,-0.0244,-0.0235,-0.0265,-0.032,-0.0319,-0.0319,-0.0244,-0.0238,-0.0233,0,0,0,0,0,-0.0011,0.0006,-0.0008,-0.0011,-0.0041,-0.0055,-0.0062,-0.0094,-0.011,-0.0109,-0.0145,-0.0173,-0.0238,-0.0238,-0.0247,-0.0239,-0.032,-0.0319,-0.0319,-0.0247,-0.0239,-0.0233,0,0,0,0,0,0,0.0019,0.0001,-0.0015,-0.0005,-0.0025,-0.0063,-0.0064,-0.0086,-0.0115,-0.0119,-0.0169,-0.018,-0.0197,-0.0228,-0.0227,-0.0256,-0.0284,-0.0285,-0.0226,-0.022,-0.0214,-0.0192,-0.0268,0,0,0,0,0,0.0029,0.0035,0.0009,0.0016,0.001,-0.0027,-0.0037,-0.0056,-0.0085,-0.0098,-0.0134,-0.0172,-0.0203,-0.0218,-0.0251,-0.0263,-0.0297,-0.0266,-0.026,-0.0255,-0.0244,-0.029,-0.0288,-0.0316,-0.0316,-0.0316,0,0,0.0042,0.0033,0.0036,0.0023,0.0003,0.0008,-0.0034,-0.004,-0.0039,-0.0102,-0.0112,-0.0154,-0.0202,-0.0219,-0.0229,-0.0242,-0.0264,-0.0254,-0.0249,-0.0241,-0.0289,-0.0287,-0.0284,-0.0316,-0.0316,-0.0316,0,0,0.0079,0.0065,0.0083,0.0074,0.0057,0.0036,0.004,0.0008,-0.0009,-0.0025,-0.007,-0.0101,-0.0148,-0.0179,-0.0202,-0.0185,-0.0234,-0.0198,-0.015,-0.0195,-0.0193,-0.0191,-0.0224,-0.0226,-0.0194,-0.0194,-0.0194,0,0.0094,0.0115,0.0086,0.0102,0.0104,0.0057,0.0079,0.0055,0.0019,0.0012,-0.0016,-0.0086,-0.0128,-0.0148,-0.0145,-0.0171,-0.0202,-0.0169,-0.0187,-0.0186,-0.0186,-0.022,-0.0223,-0.019,-0.019,-0.0191,-0.0191,0,0.0145,0.016,0.0172,0.0177,0.0173,0.0185,0.0156,0.0147,0.0117,0.0088,0.0059,-0.0006,-0.0045,-0.0067,-0.0102,-0.0118,-0.0142,-0.0174,-0.0199,-0.0178,-0.0215,-0.022,-0.0184,-0.0186,-0.0187,-0.0188,0,0,0.0186,0.0205,0.0209,0.023,0.0217,0.0225,0.0227,0.0219,0.0228,0.0171,0.0173,0.0104,0.0061,0.0033,-0.002,-0.0061,-0.0091,-0.011,-0.0114,-0.0134,-0.0182,-0.0201,-0.0208,-0.0129,-0.0129,-0.013,-0.0206,0,0.0235,0.0291,0.0281,0.0331,0.0359,0.0326,0.0336,0.0319,0.0288,0.0275,0.0197,0.0174,0.0101,0.0085,0.0031,-0.0059,-0.0101,-0.0067,-0.0207,-0.021,-0.0224,-0.0214,-0.0185,-0.0251,-0.0211,-0.0212,-0.0212,0,0.0289,0.0322,0.0383,0.0421,0.043,0.0445,0.0459,0.0463,0.0424,0.0396,0.0348,0.0289,0.0224,0.0157,0.0013,0.0038,-0.006,-0.0137,-0.0143,-0.0189,-0.0238,-0.0269,-0.0262,-0.0221,-0.022,-0.022,-0.0219,0,0.0342,0.0395,0.045,0.0462,0.049,0.0507,0.0516,0.0498,0.0523,0.0473,0.048,0.0378,0.034,0.0201,0.0039,0.0026,-0.0121,-0.0162,-0.0271,-0.0273,-0.029,-0.0293,-0.0261,-0.0261,-0.0261,-0.0261,-0.026,0,0.0403,0.0447,0.048,0.051,0.058,0.0569,0.0629,0.0614,0.0619,0.0659,0.0548,0.0557,0.0349,0.0243,0.0077,-0.0106,-0.0097,-0.0256,-0.0294,-0.0262,-0.0261,-0.0271,-0.0271,-0.0263,-0.0263,-0.0262,-0.0262,0,0.0453,0.0471,0.0542,0.0587,0.0607,0.0654,0.0718,0.0766,0.0744,0.0792,0.0787,0.0695,0.0548,0.0339,0.0115,-0.0041,-0.0224,-0.0292,-0.0234,-0.0264,-0.0356,-0.0351,-0.0418,-0.0419,-0.042,-0.0421,-0.0422,0,0.0484,0.0526,0.0604,0.0654,0.0676,0.0746,0.0805,0.0821,0.0882,0.0886,0.0926,0.0808,0.0751,0.0415,0.0106,-0.0185,-0.0226,-0.0347,-0.0374,-0.0341,-0.0372,-0.0365,-0.0359,-0.0366,-0.0366,-0.0366,-0.0366,0,0.0548,0.0572,0.0634,0.0739,0.081,0.0905,0.0986,0.1058,0.1084,0.1127,0.1161,0.112,0.0796,0.0511,0.0101,-0.0101,-0.0302,-0.036,-0.0346,-0.0327,-0.0298,-0.0326,-0.0321,-0.0368,-0.0368,-0.0368,-0.0368,-0.0368,0.0596,0.0653,0.0735,0.0839,0.0928,0.1047,0.1139,0.1232,0.1343,0.1407,0.1347,0.1279,0.0944,0.0428,0.007,-0.032,-0.0305,-0.0432,-0.0429,-0.0426,-0.0403,-0.0377,-0.0457,-0.0458,-0.0458,-0.0458,-0.0459,0,0.0664,0.073,0.0831,0.0956,0.1068,0.1101,0.1257,0.1347,0.1486,0.1525,0.1543,0.1233,0.0898,0.05,-0.0068,-0.0393,-0.0424,-0.0502,-0.0459,-0.0455,-0.0452,-0.0429,-0.0491,-0.0492,-0.0493,-0.0494,0,0,0.0701,0.0811,0.0866,0.1055,0.1144,0.1301,0.1397,0.1521,0.1587,0.164,0.1599,0.1494,0.1019,0.0613,0.0157,-0.0167,-0.0239,-0.0239,-0.0177,-0.0069,-0.0062,-0.0377,-0.0332,0,0,0,0,0]}],[{"header":{"parameterUnit":"m.s-1","parameterCategory":2,"la1":30.2991,"la2":30.254,"lo1":-89.0895,"lo2":-89.0444,"dy":0.0017,"dx":0.0017,"nx":28,"ny":28,"refTime":"2025-02-13T03:00:00:Z","depth":"4","parameterNumber":2,"parameterNumberName":"U-component_of_CURRENTS"},"data":[0,0,0,0,0,0,0,0,0,0,0,0,0,0,0,0,0,0,0,0,0,0,0,0,0,0,0,0,0,0,0,0,0,0,0,0,0,0,0,0,0,0,0,0,0,0,0,0,0,0,0,0,0,0,0,0,0,0,0.1732,0.1733,0,0.1815,0.1815,0.1816,0.1876,0.1877,0.1877,0.1878,0.1963,0.1965,0.1967,0,0,0,0,0,0,0,0,0,0,0,0,0,0.1622,0.1624,0.1732,0.1733,0.1735,0.1815,0.1816,0.1816,0.1876,0.1877,0.1878,0.1878,0.1963,0.1965,0.1967,0,0,0,0,0,0,0,0,0,0,0,0,0,0.1682,0.1624,0.1732,0.1775,0.178,0.1814,0.1816,0.1817,0.1876,0.1877,0.1878,0.1879,0.1962,0.1965,0.1967,0.1961,0,0,0.1974,0.1975,0,0,0,0,0,0,0,0,0.1678,0.1686,0.1768,0.1773,0.1778,0.1838,0.1808,0.1866,0.1875,0.1837,0.1878,0.1879,0.1922,0.1928,0.1938,0.1965,0.1969,0.1975,0.1976,0.1977,0.1978,0,0,0,0,0,0,0,0.1674,0.1682,0.1763,0.1769,0.1775,0.179,0.1799,0.1819,0.1871,0.1841,0.1846,0.1858,0.1925,0.1936,0.1941,0.197,0.1975,0.1977,0.1978,0.1979,0.2114,0.2116,0,0,0,0,0,0,0.1668,0.1679,0.176,0.1765,0.1732,0.1791,0.1801,0.1816,0.1871,0.1881,0.1857,0.186,0.1931,0.1938,0.1944,0.2046,0.1977,0.1979,0.1981,0.2112,0.2114,0.2117,0,0,0,0,0,0,0.1665,0.1674,0.1757,0.1725,0.1737,0.1792,0.1808,0.1817,0.1867,0.1884,0.1894,0.1902,0.1932,0.1941,0.2001,0.2046,0.1981,0.1983,0.2109,0.2113,0.2115,0.2182,0,0,0,0,0,0,0.1661,0.1673,0.1698,0.1725,0.1739,0.1802,0.1807,0.1818,0.1871,0.1878,0.1925,0.1932,0.1934,0.1998,0.2004,0.2048,0.1985,0.2107,0.2111,0.2114,0.2177,0.2187,0.2195,0,0,0,0,0,0.1657,0.1682,0.1699,0.171,0.1766,0.1803,0.1812,0.1852,0.1873,0.19,0.1939,0.1932,0.2027,0.2002,0.2008,0.2054,0.2105,0.211,0.2114,0.2173,0.2185,0.2195,0,0,0,0,0,0,0.1649,0.1691,0.171,0.1749,0.1786,0.1815,0.1851,0.1874,0.1925,0.1945,0.1957,0.1967,0.2037,0.2037,0.2008,0.2105,0.2066,0.2072,0.2108,0.212,0.2129,0.2131,0.1987,0,0,0,0,0,0.1657,0.1693,0.1728,0.1764,0.1786,0.1826,0.1854,0.1881,0.1921,0.1946,0.1979,0.2017,0.2054,0.2082,0.2109,0.2161,0.2163,0.2196,0.2205,0.2213,0.222,0.226,0.2273,0.2132,0.2132,0.2132,0,0,0.1665,0.1695,0.1716,0.1767,0.1801,0.1839,0.1846,0.1901,0.1943,0.1946,0.2026,0.2052,0.2075,0.2136,0.2168,0.2147,0.2257,0.2219,0.2225,0.2228,0.2266,0.228,0.2292,0.2135,0.2135,0.2134,0,0,0.1686,0.1727,0.176,0.1794,0.1854,0.1876,0.19,0.1952,0.1993,0.2059,0.2077,0.2133,0.2188,0.2215,0.2233,0.231,0.2303,0.2326,0.2377,0.2415,0.2427,0.2437,0.2464,0.2476,0.2331,0.2331,0.2331,0,0.1697,0.1739,0.1776,0.1815,0.1852,0.1897,0.1939,0.1982,0.205,0.209,0.2097,0.2202,0.2223,0.2295,0.2327,0.2331,0.2348,0.233,0.2427,0.2437,0.2446,0.2471,0.2483,0.2335,0.2335,0.2334,0.2334,0,0.1728,0.1778,0.1804,0.1867,0.1911,0.1958,0.2014,0.2071,0.2124,0.2163,0.2259,0.2293,0.2355,0.2374,0.2377,0.2462,0.2452,0.2431,0.2394,0.2464,0.2486,0.2497,0.234,0.2339,0.2338,0.2337,0,0,0.171,0.1806,0.182,0.1861,0.1946,0.198,0.2062,0.2138,0.2198,0.2272,0.235,0.2423,0.2452,0.2475,0.2492,0.253,0.2613,0.2519,0.2519,0.2538,0.2703,0.2545,0.2542,0.2614,0.2616,0.2618,0.2693,0,0.1728,0.18,0.185,0.1931,0.1972,0.2045,0.2114,0.2194,0.2264,0.235,0.2411,0.2491,0.2487,0.2532,0.2573,0.2608,0.2647,0.2595,0.2639,0.264,0.2485,0.2551,0.2626,0.2702,0.2704,0.2706,0.2707,0,0.1734,0.1785,0.1863,0.1967,0.1994,0.2055,0.2174,0.224,0.2361,0.2422,0.2511,0.256,0.2654,0.2629,0.2725,0.2697,0.2712,0.2724,0.2727,0.2562,0.2503,0.2617,0.2728,0.2726,0.2725,0.2723,0.2722,0,0.1686,0.1793,0.1858,0.1894,0.2014,0.2078,0.215,0.227,0.2346,0.2477,0.255,0.2647,0.2723,0.276,0.2803,0.2778,0.2887,0.2846,0.2717,0.2706,0.2795,0.2783,0.2906,0.2906,0.2906,0.2906,0.2906,0,0.1664,0.1721,0.1849,0.1882,0.1971,0.2067,0.2174,0.2257,0.2397,0.2479,0.2591,0.2662,0.2764,0.2836,0.2841,0.2818,0.2922,0.2737,0.2717,0.2822,0.2813,0.2804,0.2791,0.2909,0.2908,0.2907,0.2907,0,0.16,0.1682,0.1763,0.1902,0.1952,0.2018,0.2187,0.2256,0.2399,0.2512,0.2567,0.272,0.2795,0.2869,0.2938,0.2859,0.2853,0.2818,0.2944,0.2929,0.2635,0.2626,0.2667,0.2662,0.2658,0.2655,0.2652,0,0.1568,0.1606,0.176,0.1812,0.1885,0.2,0.2076,0.2239,0.2308,0.2513,0.255,0.2701,0.2772,0.2748,0.2828,0.2831,0.2796,0.2776,0.2683,0.2635,0.2614,0.261,0.2606,0.2645,0.2644,0.2643,0.2642,0,0.1508,0.1581,0.1647,0.1751,0.1843,0.1928,0.2047,0.2089,0.226,0.2419,0.2474,0.2518,0.2602,0.2639,0.2675,0.2665,0.2774,0.2731,0.2738,0.2651,0.2609,0.2591,0.2591,0.2627,0.263,0.2631,0.2632,0,0.1467,0.1494,0.1591,0.167,0.1775,0.1817,0.1894,0.1973,0.2064,0.2278,0.2287,0.2432,0.2571,0.2555,0.2581,0.257,0.2518,0.2421,0.2443,0.246,0.2357,0.2271,0.2178,0,0,0,0,0,0.1412,0.143,0.1499,0.157,0.1668,0.1723,0.1857,0.1935,0.2097,0.208,0.2178,0.2235,0.228,0.236,0.2305,0.249,0.2531,0.2416,0.2431,0.2548,0.2564,0.246,0,0,0,0,0,0,0.1373,0.1432,0.1457,0.1471,0.1496,0.158,0.1653,0.1763,0.176,0.1932,0.1969,0.2101,0.218,0.2284,0.2261,0.2285,0.2249,0.2513,0.2507,0.2538,0.2553,0.2567,0.2466,0,0,0,0,0]},{"header":{"parameterUnit":"m.s-1","parameterCategory":2,"la1":30.2991,"la2":30.254,"lo1":-89.0895,"lo2":-89.0444,"dy":0.0017,"dx":0.0017,"nx":28,"ny":28,"refTime":"2025-02-13T03:00:00:Z","depth":"4","parameterNumber":3,"parameterNumberName":"V-component_of_CURRENTS"},"data":[0,0,0,0,0,0,0,0,0,0,0,0,0,0,0,0,0,0,0,0,0,0,0,0,0,0,0,0,0,0,0,0,0,0,0,0,0,0,0,0,0,0,0,0,0,0,0,0,0,0,0,0,0,0,0,0,0,0,0.0139,0.0139,0,0.0088,0.0087,0.0086,0.0047,0.0047,0.0047,0.0047,-0.0024,-0.0026,-0.0027,0,0,0,0,0,0,0,0,0,0,0,0,0,0.0159,0.0159,0.0139,0.0138,0.0138,0.0088,0.0087,0.0086,0.0047,0.0047,0.0047,0.0047,-0.0023,-0.0025,-0.0027,0,0,0,0,0,0,0,0,0,0,0,0,0,0.0132,0.0159,0.0139,0.0114,0.0111,0.0088,0.0087,0.0086,0.0048,0.0047,0.0047,0.0047,-0.0023,-0.0025,-0.0028,-0.0038,0,0,-0.0036,-0.0037,0,0,0,0,0,0,0,0,0.0133,0.0131,0.0118,0.0116,0.0113,0.0075,0.0068,0.0044,0.0048,0.007,0.0047,0.0047,0.0009,0.0004,-0.0008,-0.0041,-0.0044,-0.0036,-0.0037,-0.0038,-0.0039,0,0,0,0,0,0,0,0.0135,0.0133,0.0117,0.0118,0.0114,0.0091,0.0087,0.0063,0.004,0.0068,0.0065,0.0063,0.0007,-0.0005,-0.001,-0.0045,-0.0036,-0.0038,-0.004,-0.0041,-0.0096,-0.0095,0,0,0,0,0,0,0.0148,0.0135,0.0118,0.0115,0.0125,0.0091,0.0086,0.0086,0.004,0.0034,0.0063,0.0061,-0.0001,-0.0007,-0.0012,-0.0019,-0.0038,-0.0041,-0.0042,-0.0096,-0.0096,-0.0095,0,0,0,0,0,0,0.0149,0.0147,0.0121,0.0125,0.012,0.0091,0.0091,0.0085,0.0075,0.0037,0.003,0.006,-0.0001,-0.0009,-0.0028,-0.0022,-0.0042,-0.0044,-0.0096,-0.0096,-0.0095,-0.0037,0,0,0,0,0,0,0.015,0.0148,0.0152,0.0126,0.0121,0.0115,0.0091,0.0085,0.0075,0.0072,0.0032,0.0025,-0.0002,-0.0024,-0.003,-0.0026,-0.0046,-0.0096,-0.0096,-0.0096,-0.0039,-0.0035,-0.0031,0,0,0,0,0,0.0151,0.0162,0.0153,0.0151,0.0128,0.0115,0.011,0.0087,0.0075,0.0075,0.0048,0.0026,-0.0028,-0.0025,-0.0033,-0.0029,-0.0096,-0.0096,-0.0096,-0.004,-0.0035,-0.0031,0,0,0,0,0,0,0.0173,0.0159,0.0148,0.0154,0.0139,0.011,0.0109,0.0092,0.007,0.0068,0.0029,0.002,0.0004,-0.0021,-0.0017,-0.0046,-0.0066,-0.0068,-0.0022,-0.0017,-0.0014,0.0004,-0.0048,0,0,0,0,0,0.0181,0.0186,0.0165,0.017,0.0166,0.0138,0.013,0.0115,0.0093,0.0082,0.0054,0.0024,-0.0002,-0.0015,-0.0041,-0.0054,-0.0084,-0.0058,-0.0054,-0.0051,-0.0043,-0.0087,-0.0086,-0.0095,-0.0095,-0.0095,0,0,0.0192,0.0185,0.0187,0.0175,0.0161,0.0163,0.0132,0.0127,0.0127,0.0079,0.007,0.0037,-0.0003,-0.0018,-0.0028,-0.0037,-0.0064,-0.0051,-0.0047,-0.0041,-0.0087,-0.0086,-0.0085,-0.0095,-0.0095,-0.0095,0,0,0.0219,0.0209,0.0222,0.0215,0.0201,0.0185,0.0188,0.0162,0.0149,0.0135,0.01,0.0073,0.0035,0.0009,-0.001,-0.0001,-0.0043,-0.0012,0.0023,-0.0021,-0.002,-0.002,-0.0054,-0.0057,-0.001,-0.0009,-0.0009,0,0.0231,0.0246,0.0224,0.0234,0.0235,0.02,0.0216,0.0197,0.0168,0.0161,0.0142,0.0083,0.0049,0.0028,0.003,0.0009,-0.0021,0.0011,-0.0015,-0.0015,-0.0016,-0.0051,-0.0055,-0.0007,-0.0007,-0.0007,-0.0007,0,0.0266,0.0278,0.0286,0.0289,0.0285,0.0293,0.027,0.0262,0.0241,0.0218,0.0191,0.014,0.0106,0.0087,0.0061,0.004,0.002,-0.0004,-0.0023,-0.0012,-0.0049,-0.0055,-0.0002,-0.0004,-0.0004,-0.0005,0,0,0.0294,0.0309,0.0312,0.0328,0.0318,0.0322,0.0323,0.0314,0.0318,0.0274,0.0271,0.0216,0.0183,0.0159,0.0117,0.0078,0.0044,0.004,0.0037,0.0014,-0.0046,-0.0052,-0.006,0.0013,0.0012,0.0012,-0.0068,0,0.0328,0.0367,0.0362,0.0398,0.0417,0.0394,0.04,0.0385,0.0361,0.0347,0.0285,0.0265,0.0211,0.0198,0.0149,0.0071,0.0031,0.0069,-0.006,-0.0063,-0.0065,-0.0066,0.001,-0.0073,-0.0074,-0.0075,-0.0076,0,0.0364,0.0387,0.0432,0.0461,0.0468,0.0481,0.049,0.0491,0.0458,0.0436,0.0395,0.0348,0.029,0.0242,0.0113,0.0139,0.0056,-0.001,-0.0016,-0.0044,-0.008,-0.0089,-0.0087,-0.0086,-0.0085,-0.0084,-0.0084,0,0.0397,0.0437,0.0479,0.0488,0.0511,0.0527,0.0535,0.0518,0.0535,0.0494,0.0497,0.0409,0.0375,0.0257,0.0121,0.0116,-0.0025,-0.0052,-0.0136,-0.0137,-0.0134,-0.0133,-0.0142,-0.0142,-0.0142,-0.0142,-0.0141,0,0.0433,0.0468,0.0502,0.0524,0.0578,0.0573,0.0619,0.0607,0.0609,0.0632,0.0549,0.0541,0.0377,0.0279,0.0143,-0.0011,-0.0013,-0.0127,-0.0159,-0.0107,-0.0102,-0.0138,-0.0136,-0.0145,-0.0144,-0.0143,-0.0143,0,0.046,0.048,0.0535,0.0576,0.0596,0.0632,0.0689,0.0721,0.0707,0.0734,0.073,0.0641,0.0506,0.0338,0.0144,0.003,-0.0124,-0.0179,-0.01,-0.0127,-0.0212,-0.0207,-0.0276,-0.0277,-0.0278,-0.0279,-0.0279,0,0.0476,0.0507,0.0578,0.0618,0.0641,0.07,0.0746,0.0764,0.0801,0.0794,0.081,0.0704,0.0618,0.0351,0.0157,-0.0101,-0.0142,-0.022,-0.0227,-0.0202,-0.0227,-0.022,-0.0213,-0.028,-0.0281,-0.0281,-0.0281,0,0.0507,0.0534,0.058,0.0667,0.0728,0.0802,0.0864,0.0901,0.0919,0.0918,0.0878,0.074,0.0586,0.0362,0.0161,-0.0027,-0.017,-0.0229,-0.0229,-0.0236,-0.0208,-0.023,-0.0223,-0.0284,-0.0283,-0.0283,-0.0283,0,0.0532,0.057,0.0636,0.0712,0.0796,0.0872,0.0903,0.0944,0.0979,0.0964,0.0948,0.0776,0.0676,0.04,0.0214,0.0029,-0.0024,-0.0087,-0.0096,-0.0095,-0.0026,0.0037,0.0013,0,0,0,0,0,0.0554,0.0602,0.0676,0.076,0.0846,0.0898,0.0973,0.0996,0.1017,0.1002,0.0978,0.0832,0.0557,0.044,0.0254,0.0184,-0.0066,-0.0041,-0.0145,-0.0298,-0.0295,-0.0247,0,0,0,0,0,0,0.0567,0.0639,0.0678,0.079,0.0856,0.0955,0.1005,0.102,0.1008,0.0997,0.0857,0.0786,0.052,0.0668,0.0253,0.0196,0.0103,-0.0169,-0.0173,-0.03,-0.0297,-0.0295,-0.0244,0,0,0,0,0]}]]